星链-4593 (STARLINK-4593 )

导读

STARLINK-4593是美国SpaceX星链(Starlink)卫星互联网星座的一员,于2022年8月28日发射升空。星链计划旨在构建全球低轨卫星互联网,为全球用户提供高速低延迟宽带服务,尤其为偏远地区及缺乏传统基础设施区域提供网络接入。STARLINK-4593运行在近地轨道,通过星链星座组网,为增强星座的网络覆盖与服务能力贡献力量,推动卫星通信技术的商业化应用发展。

Basic Information
目录编号:
53633
目录名称:
STARLINK-4593
国际标识:
2022-104AX
轨道中心:
EARTH
卫星名称:
星链-4593
卫星全名:
星链-4593 (STARLINK-4593 )
卫星状态:
在轨 (已飞行1389 天)
发射日期:
2022-08-28 UTC
国别 :
美国 (US)
星等 :
--
Orbit Information
数据来源 国际轨道数据 AOE轨道数据
星历时间 2026-06-17T12:10:10+0800
5小时前
查看轨道信息
2026-06-14T05:00:00+0800
3天前
查看轨道信息
半长轴 6917.895km 6917.866km
偏心率 0.0001752 0.000161
轨道倾角 53.160° 53.158°
近地点辐角 72.000° 80.381°
升交点赤经 137.448° 152.279°
平近点角 288.118° 352.051°
近地点 538.545km 538.615km
远地点 540.971km 540.843km
周期 95.438分钟 95.437分钟
每日圈数 15.088353 15.08845
Detailed Information
固有亮度:
5
最大亮度:
2.5
卫星平台:
Starlink v1.5
覆盖范围:
全球
运营商:
太空探索技术公司
运营商所在国:
美国
制造商(研发单位):
太空探索技术公司
制造商所在国:
美国
使用方式:
暂无
Satellite Introduction
星链(Starlink)计划是由太空探索技术公司(SpaceX)提出的一个巨型低轨卫星互联网星座项目,计划在2019年至2024年间在太空搭建由约1.2万颗卫星组成的“星链”网络,其中1584颗将部署在地球上空550千米处的近地轨道,并从2020年开始工作。该卫星仍在工作。
2D Orbit Map
3D Orbit Map
Orbit Altitude Analysis Chart
Orbit Inclination Analysis Chart
Orbit Comprehensive Analysis Chart
View Comprehensive Chart